TIANMU-1 21

Last updated on Thu Oct 30 2025 00:02:23 GMT+0000 (Coordinated Universal Time)

1 58662U 23208C 25302.47861550 .00015111 00000+0 51876-3 0 9998 2 58662 97.4354 55.7699 0008153 64.5042 295.7041 15.30204274102223
UTC large
Height (km)
Speed (km/s)
/
Latitude / Longitude
Inclination (degrees)
Orbital Period (minutes)
Azimuth
Elevation
Range (km)
Doppler Factor

Next 0 passes for location: London (51.5072 / 0.1276)

Sorry there are no passes over London.